Location: Bailleul
(50.3375°N, 2.8513°E)
Time: 11:16:33
(UTC+00:00)

Cosmos 2369 Rocket - Pass Details

Date: 16 June 2021
Orbit: 827 x 854 km, 71.0° (Epoch: 27 July)

Event Time Altitude Azimuth Distance (km) Brightness Sun altitude
Rises 23:28:47 0° 332° (NNW) 3,433 6.7 -16.1°
Reaches altitude 10° 23:31:34 10° 343° (NNW) 2,495 5.9 -16.2°
Maximum altitude 23:36:35 30° 45° (NE) 1,478 3.9 -16.2°
Drops below altitude 10° 23:41:36 10° 106° (ESE) 2,483 4.5 -16.3°
Sets 23:44:20 0° 117° (ESE) 3,414 5.1 -16.3°
